Location: *
(52.2090°N, 4.1550°W)
Time: 01:49:49
(UTC+00:00)

Landsat 7 - Pass Details

Date: 19 July 2019
Orbit: 701 x 703 km, 98.1° (Epoch: 23 August)

Event Time Altitude Azimuth Distance (km) Brightness Sun altitude
Exits shadow 21:40:49 - 170° (S) 2,343 6.0 -8.9°
Reaches altitude 10° 21:41:15 10° 171° (S) 2,168 5.8 -9.0°
Maximum altitude 21:46:00 74° 256° (WSW) 737 4.0 -9.4°
Drops below altitude 10° 21:50:48 10° 342° (NNW) 2,184 7.7 -9.8°
Sets 21:53:05 0° 345° (NNW) 3,107 8.7 -10.1°
